QPF
0.01 0.01 0.01 0.01 0.01 0.01 0.01 0.01 0.01 0.01 0.03 0.04 0.02 0.05 0.08 0.07 0.06 0.06 0.05 0.05 0.07 0.04 0.03 0.02 0.02 0.02 0.02 0.02 0.03 0.04 0.04 0.03 0.03 0.02 0.02 0.02 0.01 0.01 0.01 0.01 0.01 0.01 0.02 0.02
0.01 0.01 0.01 0.01 0.01 0.01 0.01 0.01 0.01 0.01 0.01 0.01 0.01 0.02 0.04 0.06 0.11 0.10 0.07 0.05 0.05 0.04 0.04 0.03 0.02 0.02 0.02 0.02 0.02 0.02 0.03 0.02 0.02 0.02 0.02 0.02 0.02 0.01 0.01 0.01 0.01 0.01 0.02 0.01
0.01 0.01 0.01 0.02 0.02 0.02 0.03 0.02 0.02 0.02 0.02 0.02 0.02 0.02 0.02 0.03 0.06 0.07 0.11 0.07 0.05 0.04 0.04 0.03 0.03 0.02 0.02 0.01 0.02 0.03 0.03 0.04 0.04 0.04 0.04 0.03 0.03 0.03 0.02 0.01 0.01 0.02 0.02 0.01
0.01 0.02 0.02 0.02 0.02 0.02 0.03 0.02 0.02 0.02 0.03 0.05 0.05 0.04 0.03 0.03 0.04 0.07 0.07 0.03 0.03 0.03 0.06 0.06 0.03 0.02 0.02 0.02 0.02 0.03 0.04 0.05 0.05 0.06 0.08 0.08 0.07 0.05 0.03 0.03 0.03 0.03 0.02 0.01
0.03 0.03 0.02 0.02 0.02 0.02 0.02 0.02 0.02 0.02 0.02 0.04 0.05 0.05 0.04 0.04 0.03 0.04 0.04 0.04 0.04 0.04 0.05 0.04 0.03 0.02 0.02 0.02 0.02 0.03 0.06 0.09 0.08 0.07 0.11 0.14 0.14 0.12 0.07 0.05 0.04 0.03 0.03 0.02
0.03 0.03 0.03 0.02 0.01 0.01 0.02 0.01 0.01 0.01 0.01 0.02 0.02 0.03 0.03 0.03 0.03 0.03 0.03 0.03 0.04 0.04 0.03 0.02 0.01 0.01 0.01 0.02 0.02 0.03 0.03 0.03 0.03 0.02 0.02 0.04 0.07 0.09 0.10 0.06 0.04 0.04 0.04 0.03
0.03 0.04 0.04 0.02 0.01 0.01 0.02 0.01 0.01 0.03 0.02 0.02 0.02 0.02 0.02 0.02 0.03 0.03 0.03 0.03 0.03 0.05 0.04 0.01 0.01 0.01 0.01 0.02 0.02 0.03 0.03 0.02 0.01 0.01 0.01 0.02 0.03 0.04 0.05 0.06 0.05 0.05 0.05 0.04
0.03 0.03 0.03 0.01 0.01 0.02 0.02 0.02 0.02 0.03 0.02 0.02 0.03 0.03 0.04 0.06 0.06 0.06 0.04 0.03 0.02 0.02 0.04 0.03 0.01 0.01 0.02 0.02 0.03 0.03 0.03 0.03 0.03 0.02 0.02 0.02 0.03 0.03 0.04 0.05 0.05 0.06 0.06 0.05
0.03 0.03 0.02 0.02 0.03 0.03 0.03 0.04 0.03 0.03 0.03 0.05 0.05 0.05 0.05 0.06 0.05 0.05 0.04 0.03 0.01 0.01 0.01 0.02 0.03 0.03 0.02 0.02 0.02 0.02 0.02 0.02 0.03 0.03 0.03 0.03 0.03 0.03 0.03 0.04 0.04 0.05 0.05 0.05
0.05 0.04 0.04 0.03 0.03 0.03 0.04 0.05 0.03 0.02 0.04 0.05 0.04 0.04 0.05 0.05 0.04 0.03 0.03 0.02 0.01 0.01 0.01 0.02 0.03 0.03 0.02 0.02 0.01 0.01 0.01 0.02 0.02 0.03 0.03 0.03 0.03 0.04 0.05 0.05 0.05 0.04 0.05 0.05
0.04 0.04 0.06 0.04 0.03 0.04 0.04 0.04 0.04 0.04 0.05 0.07 0.06 0.06 0.05 0.03 0.03 0.02 0.03 0.02 0.01 0.01 0.01 0.01 0.01 0.02 0.03 0.02 0.02 0.01 0.01 0.02 0.03 0.03 0.03 0.04 0.04 0.04 0.04 0.05 0.06 0.05 0.04 0.04
0.05 0.05 0.07 0.06 0.05 0.05 0.03 0.03 0.05 0.08 0.09 0.08 0.06 0.05 0.04 0.02 0.02 0.02 0.02 0.02 0.02 0.03 0.02 0.02 0.03 0.05 0.04 0.03 0.03 0.02 0.02 0.01 0.02 0.02 0.03 0.03 0.03 0.03 0.04 0.05 0.05 0.05 0.05 0.06
0.04 0.05 0.06 0.06 0.05 0.04 0.04 0.05 0.06 0.07 0.07 0.06 0.03 0.02 0.02 0.01 0.01 0.01 0.01 0.02 0.01 0.02 0.02 0.04 0.06 0.05 0.03 0.03 0.03 0.03 0.03 0.02 0.02 0.02 0.02 0.03 0.03 0.03 0.02 0.03 0.04 0.04 0.05 0.06
0.04 0.04 0.05 0.04 0.03 0.04 0.03 0.03 0.05 0.05 0.05 0.06 0.02 0.01 0.01 0.01 0.01 0.02 0.02 0.02 0.02 0.01 0.02 0.04 0.03 0.02 0.02 0.03 0.03 0.03 0.03 0.03 0.02 0.02 0.02 0.02 0.02 0.02 0.02 0.02 0.02 0.03 0.03 0.04
0.03 0.03 0.03 0.02 0.02 0.01 0.02 0.03 0.06 0.05 0.04 0.07 0.05 0.03 0.02 0.02 0.02 0.02 0.03 0.03 0.02 0.01 0.03 0.03 0.02 0.02 0.03 0.03 0.03 0.04 0.04 0.02 0.02 0.02 0.02 0.01 0.02 0.02 0.02 0.03 0.03 0.03 0.03 0.04
0.02 0.01 0.02 0.02 0.01 0.01 0.02 0.05 0.09 0.06 0.04 0.04 0.04 0.03 0.02 0.01 0.01 0.01 0.02 0.03 0.03 0.04 0.04 0.03 0.03 0.03 0.04 0.05 0.04 0.03 0.03 0.03 0.03 0.03 0.02 0.02 0.02 0.03 0.04 0.05 0.05 0.04 0.04 0.04
0.03 0.02 0.03 0.03 0.03 0.02 0.03 0.04 0.08 0.05 0.03 0.03 0.02 0.02 0.01 0.01 0.01 0.01 0.01 0.02 0.03 0.04 0.03 0.02 0.02 0.01 0.01 0.02 0.03 0.03 0.03 0.03 0.03 0.03 0.03 0.02 0.02 0.02 0.03 0.04 0.04 0.04 0.04 0.03
0.03 0.02 0.02 0.02 0.03 0.03 0.03 0.03 0.03 0.03 0.02 0.02 0.01 0.01 0.01 0.01 0.01 0.01 0.01 0.01 0.02 0.03 0.02 0.01 0.02 0.02 0.01 0.01 0.02 0.03 0.03 0.03 0.03 0.03 0.03 0.03 0.02 0.02 0.03 0.02 0.02 0.02 0.02 0.02
0.06 0.04 0.02 0.01 0.02 0.03 0.03 0.04 0.04 0.03 0.02 0.02 0.02 0.01 0.01 0.01 0.01 0.01 0.01 0.01 0.01 0.02 0.01 0.01 0.01 0.01 0.01 0.02 0.03 0.04 0.04 0.03 0.02 0.03 0.03 0.03 0.03 0.02 0.02 0.02 0.01 0.01 0.01 0.01
0.03 0.03 0.02 0.01 0.01 0.02 0.02 0.03 0.04 0.04 0.03 0.03 0.03 0.03 0.03 0.03 0.03 0.02 0.02 0.02 0.02 0.02 0.02 0.02 0.01 0.01 0.01 0.02 0.04 0.04 0.04 0.04 0.03 0.02 0.02 0.02 0.02 0.02 0.01 0.01 0.02 0.02 0.01 0.01
0.01 0.01 0.01 0.01 0.01 0.01 0.01 0.02 0.03 0.04 0.04 0.03 0.04 0.05 0.04 0.04 0.04 0.03 0.02 0.02 0.02 0.02 0.02 0.02 0.02 0.02 0.02 0.02 0.04 0.05 0.04 0.05 0.05 0.03 0.02 0.02 0.02 0.02 0.01 0.01 0.02 0.02 0.02 0.02
0.01 0.01 0.01 0.01 0.01 0.01 0.01 0.02 0.02 0.03 0.04 0.04 0.05 0.06 0.06 0.05 0.05 0.03 0.02 0.02 0.01 0.02 0.02 0.01 0.01 0.02 0.02 0.03 0.06 0.06 0.05 0.04 0.05 0.04 0.03 0.02 0.02 0.02 0.01 0.02 0.03 0.02 0.02 0.02
0.02 0.02 0.02 0.02 0.02 0.02 0.02 0.02 0.02 0.02 0.02 0.03 0.04 0.05 0.06 0.05 0.04 0.03 0.03 0.02 0.02 0.02 0.01 0.01 0.01 0.02 0.02 0.02 0.05 0.07 0.05 0.03 0.02 0.02 0.02 0.02 0.02 0.02 0.01 0.01 0.02 0.03 0.03 0.01
0.02 0.02 0.02 0.02 0.02 0.02 0.02 0.01 0.01 0.02 0.02 0.03 0.04 0.04 0.03 0.04 0.03 0.03 0.02 0.02 0.02 0.02 0.01 0.00 0.01 0.01 0.01 0.01 0.02 0.05 0.06 0.04 0.02 0.01 0.01 0.01 0.02 0.02 0.02 0.01 0.01 0.01 0.02 0.01
0.03 0.03 0.03 0.03 0.03 0.03 0.02 0.02 0.02 0.01 0.01 0.02 0.04 0.04 0.02 0.03 0.03 0.02 0.02 0.02 0.03 0.03 0.02 0.01 0.01 0.01 0.01 0.02 0.02 0.04 0.05 0.05 0.03 0.01 0.01 0.01 0.02 0.02 0.02 0.02 0.02 0.02 0.01 0.01
0.03 0.03 0.05 0.04 0.04 0.03 0.03 0.02 0.02 0.01 0.01 0.02 0.02 0.02 0.02 0.02 0.02 0.02 0.03 0.04 0.06 0.05 0.04 0.03 0.02 0.02 0.02 0.02 0.02 0.03 0.06 0.05 0.04 0.03 0.02 0.02 0.02 0.03 0.03 0.02 0.01 0.01 0.01 0.01
0.03 0.03 0.04 0.06 0.05 0.04 0.04 0.03 0.02 0.02 0.02 0.02 0.02 0.02 0.03 0.03 0.03 0.04 0.05 0.06 0.05 0.04 0.03 0.03 0.02 0.02 0.02 0.01 0.02 0.02 0.04 0.05 0.03 0.03 0.04 0.04 0.03 0.03 0.02 0.02 0.02 0.01 0.01 0.01
MSLP
1011.75 1011.76 1011.82 1011.96 1012.22 1012.56 1012.97 1013.38 1013.77 1014.08 1014.30 1014.43 1014.48 1014.49 1014.49 1014.52 1014.58 1014.69 1014.84 1014.99 1015.12 1015.20 1015.22 1015.17 1015.05 1014.88 1014.67 1014.43 1014.19 1013.94 1013.69 1013.43 1013.17 1012.91 1012.65 1012.41 1012.20 1012.04 1011.94 1011.89 1011.90 1011.94 1011.99 1012.01
1012.10 1012.03 1011.95 1011.91 1011.96 1012.10 1012.32 1012.59 1012.90 1013.20 1013.48 1013.72 1013.92 1014.10 1014.26 1014.41 1014.56 1014.71 1014.86 1014.99 1015.08 1015.14 1015.14 1015.10 1015.01 1014.88 1014.72 1014.53 1014.33 1014.10 1013.84 1013.57 1013.28 1012.98 1012.68 1012.41 1012.19 1012.04 1011.96 1011.94 1011.98 1012.06 1012.14 1012.20
1012.49 1012.33 1012.13 1011.94 1011.82 1011.78 1011.86 1012.02 1012.28 1012.59 1012.93 1013.28 1013.62 1013.94 1014.23 1014.48 1014.70 1014.87 1015.01 1015.10 1015.14 1015.15 1015.12 1015.06 1014.97 1014.86 1014.74 1014.59 1014.41 1014.20 1013.95 1013.67 1013.36 1013.03 1012.71 1012.43 1012.20 1012.04 1011.96 1011.96 1012.02 1012.12 1012.22 1012.29
1012.91 1012.67 1012.36 1012.05 1011.79 1011.64 1011.61 1011.71 1011.93 1012.26 1012.67 1013.11 1013.57 1014.01 1014.40 1014.73 1014.99 1015.17 1015.28 1015.32 1015.30 1015.25 1015.17 1015.08 1014.98 1014.88 1014.76 1014.64 1014.48 1014.28 1014.04 1013.75 1013.43 1013.09 1012.75 1012.44 1012.20 1012.02 1011.94 1011.93 1011.98 1012.07 1012.17 1012.24
1013.28 1012.96 1012.57 1012.17 1011.83 1011.60 1011.51 1011.57 1011.79 1012.15 1012.61 1013.14 1013.68 1014.20 1014.67 1015.05 1015.34 1015.52 1015.60 1015.60 1015.53 1015.43 1015.30 1015.18 1015.06 1014.94 1014.84 1014.71 1014.56 1014.37 1014.13 1013.84 1013.50 1013.14 1012.79 1012.46 1012.18 1011.98 1011.85 1011.81 1011.83 1011.89 1011.97 1012.03
1013.46 1013.08 1012.64 1012.20 1011.82 1011.56 1011.45 1011.52 1011.75 1012.14 1012.64 1013.22 1013.83 1014.41 1014.92 1015.34 1015.64 1015.83 1015.90 1015.87 1015.78 1015.64 1015.49 1015.34 1015.20 1015.08 1014.97 1014.84 1014.69 1014.50 1014.25 1013.94 1013.59 1013.21 1012.83 1012.46 1012.14 1011.89 1011.71 1011.61 1011.57 1011.58 1011.62 1011.66
1013.34 1012.94 1012.48 1012.04 1011.67 1011.43 1011.34 1011.43 1011.69 1012.11 1012.65 1013.26 1013.90 1014.51 1015.06 1015.50 1015.82 1016.02 1016.10 1016.08 1015.98 1015.85 1015.70 1015.54 1015.40 1015.28 1015.15 1015.02 1014.86 1014.65 1014.39 1014.07 1013.70 1013.29 1012.87 1012.46 1012.09 1011.78 1011.53 1011.34 1011.23 1011.17 1011.15 1011.15
1012.87 1012.47 1012.04 1011.65 1011.34 1011.15 1011.12 1011.26 1011.56 1012.01 1012.57 1013.19 1013.84 1014.46 1015.02 1015.48 1015.83 1016.05 1016.17 1016.18 1016.13 1016.02 1015.90 1015.77 1015.64 1015.51 1015.38 1015.23 1015.05 1014.82 1014.54 1014.19 1013.80 1013.36 1012.91 1012.46 1012.03 1011.65 1011.32 1011.06 1010.85 1010.71 1010.61 1010.56
1012.06 1011.70 1011.35 1011.04 1010.83 1010.74 1010.79 1011.00 1011.34 1011.82 1012.38 1013.01 1013.65 1014.27 1014.82 1015.30 1015.67 1015.94 1016.11 1016.19 1016.20 1016.16 1016.08 1015.99 1015.88 1015.76 1015.62 1015.46 1015.25 1014.99 1014.68 1014.31 1013.89 1013.43 1012.95 1012.46 1011.98 1011.54 1011.13 1010.78 1010.49 1010.25 1010.08 1009.97
1011.02 1010.73 1010.48 1010.30 1010.21 1010.24 1010.40 1010.68 1011.08 1011.58 1012.15 1012.76 1013.38 1013.98 1014.53 1015.02 1015.42 1015.74 1015.98 1016.14 1016.23 1016.26 1016.25 1016.20 1016.12 1016.00 1015.85 1015.66 1015.42 1015.13 1014.78 1014.39 1013.95 1013.48 1012.98 1012.47 1011.96 1011.47 1011.00 1010.58 1010.20 1009.88 1009.62 1009.43
1009.87 1009.69 1009.56 1009.52 1009.58 1009.75 1010.02 1010.39 1010.84 1011.36 1011.92 1012.51 1013.10 1013.68 1014.22 1014.71 1015.15 1015.53 1015.84 1016.08 1016.25 1016.36 1016.41 1016.40 1016.33 1016.21 1016.04 1015.81 1015.54 1015.21 1014.84 1014.43 1013.98 1013.50 1013.01 1012.49 1011.98 1011.46 1010.95 1010.47 1010.02 1009.62 1009.27 1009.01
1008.78 1008.70 1008.71 1008.82 1009.03 1009.33 1009.71 1010.16 1010.66 1011.20 1011.76 1012.32 1012.89 1013.44 1013.97 1014.48 1014.95 1015.37 1015.74 1016.06 1016.30 1016.48 1016.57 1016.59 1016.52 1016.39 1016.18 1015.91 1015.59 1015.23 1014.83 1014.41 1013.97 1013.51 1013.04 1012.55 1012.04 1011.53 1011.01 1010.49 1009.98 1009.51 1009.08 1008.73
1007.83 1007.86 1008.00 1008.24 1008.58 1009.01 1009.49 1010.02 1010.56 1011.11 1011.67 1012.22 1012.76 1013.30 1013.82 1014.34 1014.84 1015.31 1015.74 1016.11 1016.41 1016.62 1016.74 1016.77 1016.69 1016.52 1016.28 1015.96 1015.59 1015.20 1014.78 1014.36 1013.94 1013.51 1013.07 1012.63 1012.16 1011.67 1011.15 1010.62 1010.08 1009.54 1009.05 1008.62
1007.07 1007.19 1007.43 1007.78 1008.24 1008.76 1009.32 1009.90 1010.49 1011.06 1011.62 1012.16 1012.70 1013.23 1013.77 1014.30 1014.82 1015.33 1015.81 1016.22 1016.56 1016.80 1016.93 1016.94 1016.84 1016.63 1016.33 1015.97 1015.56 1015.14 1014.71 1014.30 1013.90 1013.51 1013.13 1012.74 1012.32 1011.86 1011.37 1010.84 1010.28 1009.71 1009.15 1008.64
1006.48 1006.66 1006.97 1007.40 1007.93 1008.52 1009.14 1009.76 1010.38 1010.98 1011.55 1012.10 1012.65 1013.20 1013.75 1014.31 1014.87 1015.42 1015.93 1016.37 1016.73 1016.98 1017.10 1017.09 1016.96 1016.71 1016.36 1015.96 1015.52 1015.07 1014.64 1014.24 1013.87 1013.53 1013.20 1012.87 1012.50 1012.10 1011.64 1011.12 1010.55 1009.96 1009.36 1008.79
1005.99 1006.20 1006.55 1007.02 1007.59 1008.21 1008.87 1009.53 1010.17 1010.80 1011.40 1011.98 1012.56 1013.14 1013.73 1014.33 1014.93 1015.51 1016.05 1016.52 1016.89 1017.14 1017.25 1017.22 1017.05 1016.76 1016.39 1015.95 1015.49 1015.03 1014.61 1014.22 1013.88 1013.58 1013.30 1013.02 1012.71 1012.34 1011.92 1011.42 1010.87 1010.26 1009.65 1009.04
1005.55 1005.77 1006.12 1006.60 1007.18 1007.81 1008.48 1009.16 1009.83 1010.49 1011.12 1011.75 1012.38 1013.01 1013.66 1014.31 1014.95 1015.57 1016.14 1016.62 1017.00 1017.25 1017.35 1017.30 1017.12 1016.81 1016.42 1015.96 1015.50 1015.04 1014.62 1014.26 1013.95 1013.68 1013.43 1013.19 1012.91 1012.58 1012.19 1011.72 1011.18 1010.59 1009.97 1009.35
1005.13 1005.33 1005.68 1006.14 1006.69 1007.32 1007.99 1008.67 1009.37 1010.06 1010.75 1011.43 1012.12 1012.82 1013.53 1014.23 1014.92 1015.58 1016.17 1016.67 1017.06 1017.30 1017.40 1017.35 1017.15 1016.85 1016.45 1016.01 1015.55 1015.11 1014.70 1014.36 1014.06 1013.81 1013.59 1013.36 1013.11 1012.81 1012.44 1011.99 1011.48 1010.92 1010.32 1009.72
1004.76 1004.93 1005.24 1005.66 1006.18 1006.78 1007.44 1008.13 1008.85 1009.57 1010.31 1011.06 1011.82 1012.58 1013.35 1014.11 1014.85 1015.53 1016.15 1016.66 1017.05 1017.30 1017.39 1017.35 1017.17 1016.87 1016.50 1016.08 1015.65 1015.23 1014.85 1014.52 1014.24 1014.00 1013.78 1013.56 1013.31 1013.02 1012.67 1012.25 1011.77 1011.24 1010.69 1010.12
1004.48 1004.62 1004.88 1005.25 1005.73 1006.30 1006.93 1007.62 1008.35 1009.11 1009.90 1010.71 1011.53 1012.35 1013.18 1013.98 1014.75 1015.46 1016.08 1016.60 1016.98 1017.23 1017.34 1017.31 1017.15 1016.89 1016.56 1016.18 1015.79 1015.41 1015.06 1014.74 1014.47 1014.23 1014.00 1013.78 1013.52 1013.23 1012.89 1012.50 1012.06 1011.58 1011.07 1010.57
1004.37 1004.46 1004.67 1004.99 1005.42 1005.94 1006.54 1007.22 1007.96 1008.75 1009.58 1010.43 1011.30 1012.18 1013.04 1013.87 1014.65 1015.37 1015.99 1016.50 1016.88 1017.13 1017.24 1017.23 1017.11 1016.89 1016.61 1016.29 1015.95 1015.61 1015.30 1015.01 1014.74 1014.50 1014.26 1014.02 1013.76 1013.47 1013.14 1012.77 1012.37 1011.93 1011.49 1011.05
1004.46 1004.52 1004.67 1004.92 1005.29 1005.76 1006.33 1006.99 1007.73 1008.53 1009.38 1010.26 1011.17 1012.07 1012.95 1013.79 1014.57 1015.28 1015.88 1016.37 1016.74 1016.99 1017.11 1017.12 1017.04 1016.87 1016.65 1016.39 1016.11 1015.83 1015.55 1015.30 1015.05 1014.81 1014.57 1014.32 1014.05 1013.75 1013.43 1013.08 1012.71 1012.33 1011.94 1011.56
1004.77 1004.77 1004.86 1005.06 1005.36 1005.78 1006.30 1006.93 1007.65 1008.45 1009.30 1010.20 1011.12 1012.03 1012.91 1013.74 1014.51 1015.19 1015.76 1016.23 1016.58 1016.81 1016.94 1016.98 1016.93 1016.82 1016.66 1016.47 1016.26 1016.04 1015.82 1015.59 1015.37 1015.14 1014.90 1014.65 1014.38 1014.08 1013.77 1013.44 1013.10 1012.75 1012.41 1012.07
1005.24 1005.19 1005.22 1005.34 1005.58 1005.94 1006.41 1007.00 1007.70 1008.48 1009.32 1010.22 1011.13 1012.03 1012.90 1013.71 1014.44 1015.08 1015.63 1016.06 1016.39 1016.62 1016.75 1016.81 1016.80 1016.75 1016.65 1016.53 1016.38 1016.23 1016.06 1015.89 1015.70 1015.49 1015.26 1015.02 1014.75 1014.46 1014.16 1013.84 1013.52 1013.19 1012.88 1012.57
1005.76 1005.66 1005.64 1005.70 1005.87 1006.17 1006.59 1007.14 1007.80 1008.55 1009.38 1010.26 1011.15 1012.03 1012.87 1013.66 1014.35 1014.96 1015.47 1015.87 1016.18 1016.40 1016.54 1016.62 1016.66 1016.65 1016.62 1016.56 1016.49 1016.40 1016.30 1016.17 1016.02 1015.84 1015.64 1015.40 1015.14 1014.86 1014.57 1014.26 1013.94 1013.63 1013.32 1013.02
1006.24 1006.10 1006.03 1006.04 1006.16 1006.40 1006.78 1007.28 1007.91 1008.63 1009.44 1010.29 1011.16 1012.01 1012.82 1013.57 1014.24 1014.81 1015.29 1015.67 1015.96 1016.18 1016.33 1016.44 1016.50 1016.55 1016.57 1016.58 1016.57 1016.55 1016.50 1016.42 1016.32 1016.17 1015.99 1015.78 1015.54 1015.26 1014.97 1014.66 1014.35 1014.03 1013.71 1013.39
1006.56 1006.40 1006.30 1006.27 1006.36 1006.57 1006.91 1007.38 1007.98 1008.68 1009.46 1010.29 1011.13 1011.96 1012.74 1013.46 1014.10 1014.65 1015.10 1015.46 1015.75 1015.96 1016.13 1016.26 1016.37 1016.46 1016.53 1016.60 1016.65 1016.68 1016.68 1016.65 1016.58 1016.47 1016.32 1016.13 1015.90 1015.63 1015.34 1015.03 1014.71 1014.37 1014.03 1013.67
Thickness
5708 5717 5719 5718 5719 5721 5713 5708 5698 5702 5706 5713 5716 5718 5719 5719 5717 5714 5712 5710 5708 5704 5701 5699 5698 5697 5695 5693 5690 5688 5685 5683 5682 5681 5681 5680 5678 5677 5676 5676 5676 5675 5675 5675
5700 5713 5714 5712 5717 5718 5715 5713 5709 5707 5705 5716 5718 5717 5714 5712 5710 5706 5704 5703 5701 5698 5696 5693 5692 5691 5689 5687 5685 5683 5680 5678 5677 5676 5675 5674 5673 5672 5671 5670 5670 5670 5670 5670
5678 5696 5700 5689 5705 5708 5707 5709 5706 5697 5701 5709 5708 5708 5707 5705 5704 5702 5698 5696 5694 5692 5690 5687 5686 5685 5682 5681 5680 5677 5675 5673 5672 5670 5668 5667 5667 5666 5665 5665 5664 5664 5664 5665
5666 5675 5667 5686 5708 5709 5703 5703 5706 5704 5705 5706 5704 5702 5702 5702 5699 5695 5693 5690 5688 5686 5683 5682 5681 5679 5677 5676 5674 5672 5669 5668 5667 5665 5663 5661 5660 5660 5659 5659 5659 5659 5659 5659
5654 5654 5664 5686 5700 5701 5693 5690 5700 5698 5698 5698 5698 5693 5689 5693 5693 5691 5689 5687 5683 5681 5679 5676 5675 5673 5671 5669 5667 5665 5663 5662 5661 5660 5658 5656 5655 5654 5654 5654 5654 5654 5654 5653
5651 5648 5649 5671 5696 5704 5693 5677 5693 5693 5690 5690 5688 5673 5675 5684 5685 5684 5684 5681 5678 5675 5673 5670 5668 5667 5664 5661 5659 5658 5657 5657 5656 5655 5653 5651 5650 5649 5650 5650 5649 5649 5648 5648
5646 5643 5652 5676 5691 5694 5667 5667 5685 5688 5685 5684 5679 5675 5677 5679 5678 5676 5675 5673 5672 5669 5665 5663 5662 5660 5656 5653 5652 5652 5652 5651 5650 5649 5648 5647 5645 5645 5644 5644 5643 5642 5642 5643
5639 5635 5643 5677 5680 5670 5668 5677 5680 5681 5681 5678 5676 5675 5673 5672 5671 5668 5665 5664 5663 5660 5658 5657 5655 5653 5649 5647 5647 5647 5646 5644 5643 5643 5643 5642 5639 5639 5638 5637 5636 5635 5635 5635
5641 5643 5659 5668 5670 5674 5674 5672 5673 5673 5674 5672 5669 5666 5665 5664 5662 5660 5659 5656 5654 5652 5650 5649 5648 5647 5643 5642 5641 5640 5638 5636 5636 5636 5636 5635 5633 5633 5632 5630 5629 5628 5628 5627
5642 5649 5655 5661 5666 5668 5670 5668 5669 5669 5668 5666 5662 5660 5658 5656 5654 5653 5651 5648 5646 5644 5642 5641 5641 5641 5639 5638 5636 5634 5632 5630 5629 5628 5628 5628 5628 5627 5625 5624 5623 5621 5621 5621
5636 5644 5648 5653 5656 5660 5662 5664 5664 5663 5662 5661 5658 5654 5653 5650 5648 5646 5645 5642 5639 5637 5636 5635 5634 5634 5634 5632 5630 5627 5625 5624 5623 5622 5622 5621 5621 5621 5620 5619 5618 5616 5616 5616
5627 5637 5636 5639 5648 5654 5654 5655 5655 5654 5653 5653 5653 5650 5649 5645 5643 5641 5638 5635 5633 5632 5631 5630 5629 5628 5628 5627 5625 5622 5619 5618 5617 5617 5616 5615 5615 5614 5614 5614 5614 5614 5613 5613
5634 5639 5638 5641 5645 5648 5648 5649 5649 5648 5647 5646 5647 5646 5644 5640 5637 5636 5633 5631 5629 5628 5627 5625 5623 5622 5623 5622 5620 5617 5615 5613 5612 5612 5611 5609 5608 5607 5606 5606 5607 5607 5607 5606
5635 5635 5632 5635 5636 5641 5642 5642 5642 5642 5641 5642 5641 5639 5637 5634 5632 5630 5628 5627 5626 5623 5621 5620 5618 5617 5618 5617 5615 5612 5610 5610 5608 5607 5606 5604 5603 5602 5601 5600 5599 5599 5600 5600
5632 5631 5628 5631 5632 5634 5635 5634 5633 5633 5634 5633 5632 5631 5629 5627 5625 5624 5623 5622 5620 5617 5615 5614 5612 5612 5612 5611 5609 5607 5606 5604 5604 5603 5602 5601 5600 5598 5597 5596 5594 5593 5593 5593
5626 5626 5626 5625 5625 5627 5626 5625 5625 5626 5626 5625 5624 5623 5623 5621 5620 5618 5616 5615 5612 5610 5609 5608 5607 5607 5607 5606 5604 5602 5601 5601 5600 5598 5597 5596 5595 5594 5592 5590 5589 5588 5587 5587
5615 5614 5616 5616 5618 5618 5618 5618 5618 5619 5619 5618 5618 5618 5617 5614 5612 5610 5609 5608 5607 5606 5604 5603 5603 5603 5602 5601 5599 5597 5597 5596 5596 5594 5592 5591 5590 5589 5587 5586 5585 5584 5584 5584
5614 5612 5611 5610 5609 5610 5612 5613 5612 5612 5611 5612 5612 5611 5609 5607 5604 5603 5602 5601 5599 5598 5598 5598 5598 5598 5597 5596 5594 5592 5591 5591 5590 5588 5587 5586 5585 5583 5582 5581 5581 5580 5579 5579
5609 5608 5607 5607 5606 5606 5605 5605 5605 5605 5605 5605 5604 5602 5602 5600 5598 5596 5595 5593 5591 5589 5590 5592 5593 5592 5591 5590 5590 5587 5586 5586 5585 5584 5583 5582 5580 5578 5577 5576 5576 5575 5575 5574
5604 5603 5603 5602 5602 5600 5599 5599 5598 5598 5598 5598 5597 5595 5593 5593 5592 5590 5588 5586 5586 5586 5587 5587 5586 5585 5584 5584 5584 5582 5581 5581 5579 5579 5577 5576 5574 5573 5572 5572 5571 5570 5570 5568
5597 5597 5597 5596 5595 5595 5594 5593 5592 5591 5591 5591 5589 5587 5586 5586 5585 5584 5581 5579 5581 5582 5581 5581 5580 5579 5579 5578 5578 5576 5576 5575 5574 5573 5572 5570 5569 5568 5567 5566 5566 5565 5564 5563
5589 5590 5590 5590 5589 5588 5588 5587 5587 5587 5586 5584 5584 5582 5581 5579 5578 5577 5576 5575 5577 5577 5576 5575 5574 5575 5574 5573 5572 5571 5570 5570 5569 5568 5566 5565 5564 5563 5562 5561 5560 5560 5559 5558
5582 5582 5582 5582 5582 5581 5582 5581 5581 5581 5580 5579 5577 5576 5575 5574 5573 5571 5569 5571 5572 5572 5571 5570 5570 5570 5569 5568 5567 5566 5566 5565 5564 5563 5563 5562 5561 5560 5559 5557 5556 5556 5555 5553
5576 5576 5576 5576 5576 5575 5573 5574 5575 5575 5575 5574 5573 5572 5570 5568 5567 5568 5568 5569 5568 5568 5566 5565 5565 5564 5563 5562 5562 5562 5561 5561 5560 5559 5559 5558 5557 5556 5554 5553 5551 5551 5550 5549
5569 5569 5570 5569 5568 5567 5568 5569 5569 5569 5569 5568 5568 5568 5567 5565 5563 5563 5563 5563 5563 5562 5562 5561 5560 5559 5558 5558 5558 5558 5557 5556 5555 5555 5554 5553 5552 5550 5549 5548 5547 5545 5544 5543
5561 5561 5562 5562 5562 5562 5563 5563 5562 5562 5562 5562 5562 5562 5561 5560 5559 5558 5557 5557 5558 5557 5557 5556 5555 5554 5554 5554 5554 5554 5553 5552 5552 5551 5550 5549 5548 5546 5545 5543 5542 5540 5539 5538
5556 5555 5554 5554 5556 5557 5558 5558 5557 5557 5558 5557 5556 5556 5555 5555 5554 5553 5552 5552 5551 5551 5551 5551 5551 5551 5551 5550 5550 5550 5549 5548 5548 5546 5545 5544 5543 5541 5540 5539 5537 5535 5533 5532